Reading, PA

9:16 PM EDT on September 22, 2017 (GMT -0400)
Reading Regional-Spaatz

Weather History for KRDG - March, 2012

Change the Weather History Date:

Friday, March 23, 2012

  Actual Average Record
Temperature  
Mean Temperature 65 °F 44 °F  
Max Temperature 80 °F 53 °F 80 °F (2012)
Min Temperature 50 °F 34 °F 14 °F (1906)
Degree Days  
Heating Degree Days 0 22  
Month to date heating degree days 303 583  
Since 1 July heating degree days 3631 4625  
Cooling Degree Days 0 0  
Month to date cooling degree days 5 0  
Year to date cooling degree days 5 0  
Growing Degree Days 15 (Base 50)    
Moisture  
Dew Point 53 °F    
Average Humidity 71    
Maximum Humidity 100    
Minimum Humidity 42    
Precipitation  
Precipitation 0.00 in 0.12 in 2.18 in (1903)
Month to date precipitation 0.29 2.42  
Year to date precipitation 4.21 7.95  
Sea Level Pressure  
Sea Level Pressure 30.08 in    
Wind  
Wind Speed 3 mph (East)    
Max Wind Speed 13 mph    
Max Gust Speed 17 mph    
Visibility 4 miles    
Events Fog    
T = Trace of Precipitation, MM = Missing Value Source: NWS Daily Summary

Daily Weather History Graph

Daily Weather History Graph

Search for Another Location

Airport or City:

Trip Planner

Search our weather history database for the weather conditions in past years. The results will help you decide how hot, cold, wet, or windy it might be!

Date:

Astronomy

Mar. 23, 2012 Rise Set
Actual Time 7:01 AM EDT 7:19 PM EDT
Civil Twilight 6:34 AM EDT 7:46 PM EDT
Nautical Twilight 6:02 AM EDT 8:18 PM EDT
Astronomical Twilight 5:29 AM EDT 8:51 PM EDT
Moon 7:08 AM EDT 8:40 PM EDT
Length of Visible Light 13h 12m
Length of Day
12h 18m
New Moon, 1% of the Moon is Illuminated
Mar 23
New Moon
Mar 30
First Quarter
Apr 6
Full
Apr 13
Last Quarter
Apr 21
New

Hourly Weather History & Observations

Time (EDT) Temp. Heat Index Dew Point Humidity Pressure Visibility Wind Dir Wind Speed Gust Speed Precip Events Conditions
12:01 AM 57.2 °F - 55.4 °F 94% 30.12 in 0.5 mi Calm Calm - N/A Fog Fog
12:19 AM 55.4 °F - 55.4 °F 100% 30.12 in 1.0 mi Calm Calm - N/A   Mist
12:25 AM 57.2 °F - 57.2 °F 100% 30.11 in 2.0 mi Calm Calm - N/A   Partly Cloudy
12:43 AM 55.4 °F - 55.4 °F 100% 30.11 in 1.0 mi Calm Calm - N/A   Mist
12:45 AM 55.4 °F - 55.4 °F 100% 30.11 in 0.5 mi Calm Calm - N/A Fog Fog
12:54 AM 55.0 °F - 54.0 °F 96% 30.12 in 0.2 mi Calm Calm - N/A Fog Fog
1:03 AM 55.4 °F - 53.6 °F 94% 30.10 in 0.2 mi Calm Calm - N/A Fog Fog
1:13 AM 55.4 °F - 55.4 °F 100% 30.10 in 1.2 mi Calm Calm - N/A   Mostly Cloudy
1:25 AM 55.4 °F - 53.6 °F 94% 30.10 in 0.5 mi Calm Calm - N/A Fog Fog
1:32 AM 53.6 °F - 51.8 °F 94% 30.10 in 0.2 mi Calm Calm - N/A Fog Fog
1:45 AM 53.6 °F - 53.6 °F 100% 30.09 in 0.5 mi Calm Calm - N/A Fog Fog
1:47 AM 53.6 °F - 53.6 °F 100% 30.09 in 1.0 mi Calm Calm - N/A   Mist
1:54 AM 53.1 °F - 52.0 °F 96% 30.11 in 0.5 mi Calm Calm - N/A Fog Fog
2:10 AM 53.6 °F - 51.8 °F 94% 30.09 in 1.0 mi Calm Calm - N/A   Mist
2:14 AM 51.8 °F - 50.0 °F 94% 30.09 in 3.0 mi Calm Calm - N/A   Mostly Cloudy
2:16 AM 51.8 °F - 50.0 °F 94% 30.09 in 1.2 mi Calm Calm - N/A   Mostly Cloudy
2:19 AM 51.8 °F - 48.2 °F 88% 30.09 in 0.5 mi NNW 3.5 mph - N/A Fog Fog
2:31 AM 50.0 °F - 48.2 °F 94% 30.09 in 0.2 mi Calm Calm - N/A Fog Fog
2:46 AM 51.8 °F - 51.8 °F 100% 30.08 in 0.2 mi Calm Calm - N/A Fog Fog
2:54 AM 52.0 °F - 51.1 °F 97% 30.10 in 0.2 mi Calm Calm - N/A Fog Fog
3:16 AM 51.8 °F - 50.0 °F 94% 30.08 in 0.2 mi West 3.5 mph - N/A Fog Fog
3:27 AM 51.8 °F - 50.0 °F 94% 30.08 in 0.2 mi Calm Calm - N/A Fog Fog
3:54 AM 51.1 °F - 50.0 °F 96% 30.09 in 0.2 mi North 3.5 mph - N/A Fog Fog
4:54 AM 51.1 °F - 51.1 °F 100% 30.08 in 0.2 mi Calm Calm - N/A Fog Fog
5:54 AM 50.0 °F - 48.9 °F 96% 30.09 in 0.2 mi Calm Calm - N/A Fog Fog
6:54 AM 50.0 °F - 48.9 °F 96% 30.10 in 0.2 mi Calm Calm - N/A Fog Fog
7:54 AM 50.0 °F - 50.0 °F 100% 30.12 in 0.2 mi Calm Calm - N/A Fog Fog
8:54 AM 52.0 °F - 52.0 °F 100% 30.12 in 0.2 mi Calm Calm - N/A Fog Fog
9:54 AM 57.0 °F - 55.9 °F 96% 30.12 in 0.2 mi Calm Calm - N/A Fog Fog
10:03 AM 57.2 °F - 55.4 °F 94% 30.11 in 1.0 mi Calm Calm - N/A   Mist
10:11 AM 57.2 °F - 57.2 °F 100% 30.11 in 2.0 mi Calm Calm - N/A   Scattered Clouds
10:37 AM 62.6 °F - 57.2 °F 82% 30.11 in 4.0 mi NNW 3.5 mph - N/A   Haze
10:54 AM 66.9 °F - 57.9 °F 73% 30.12 in 6.0 mi Calm Calm - N/A   Haze
11:54 AM 75.0 °F - 57.9 °F 55% 30.10 in 10.0 mi NNW 9.2 mph - N/A   Clear
12:54 PM 78.1 °F - 57.0 °F 48% 30.08 in 10.0 mi Calm Calm - 0.00 in   Clear
1:54 PM 80.1 °F 80.2 °F 55.9 °F 43% 30.05 in 10.0 mi North 4.6 mph - N/A   Mostly Cloudy
2:54 PM 79.0 °F - 54.0 °F 42% 30.02 in 10.0 mi SE 10.4 mph - N/A   Scattered Clouds
3:54 PM 80.1 °F 80.2 °F 55.9 °F 43% 30.01 in 10.0 mi Variable 4.6 mph - 0.00 in   Mostly Cloudy
4:54 PM 80.1 °F 80.1 °F 55.0 °F 42% 29.99 in 10.0 mi SE 3.5 mph - N/A   Scattered Clouds
5:54 PM 78.1 °F - 55.0 °F 45% 29.99 in 10.0 mi ESE 6.9 mph - N/A   Overcast
6:54 PM 75.9 °F - 54.0 °F 46% 30.00 in 10.0 mi SE 5.8 mph - N/A   Clear
7:54 PM 73.9 °F - 53.1 °F 48% 30.00 in 10.0 mi SE 9.2 mph - N/A   Clear
8:54 PM 71.1 °F - 53.1 °F 53% 30.01 in 10.0 mi ESE 8.1 mph - N/A   Clear
9:54 PM 66.9 °F - 52.0 °F 59% 30.02 in 10.0 mi ESE 4.6 mph 17.3 mph N/A   Clear
10:54 PM 64.9 °F - 52.0 °F 63% 30.03 in 10.0 mi East 5.8 mph - N/A   Clear
11:54 PM 62.1 °F - 50.0 °F 65% 30.03 in 10.0 mi East 3.5 mph - N/A   Clear